SCP
0 0 0 0 0 0 0 0 0 0 0 0 0 0 0 0 0 0 0 -0 0 0 0 0 0 0 0 0 -0 -0 -0 -0 -0 -0 -0 -0 -0 -0 -0 -0 -0 -0 -0 -0 -0 0 0 0 0
0 0 0 0 0 0 0 0 0 0 0 0 0 0 0 0 0 0 0 0 0 0 0 0 0 0 -0 -0 -0 -0 -0 -0 -0 -0 -0 -0 -0 -0 -0 -0 -0 -0 -0 -0 -0 0 0 0 0
0 0 0 0 0 0 0 0 0 0 0 0 0 0 0 0 0 0 -0 0 0 0 0 0 0 -0 -0 -0 -0 -0 -0 -0 -0 -0 -0 -0 -0 -0 -0 -0 0 0 0 0 0 0 0 0 0
0 0 0 0 0 0 0 0 0 0 0 0 -0 0 0 -0 -0 -0 0 0 0 0 0 0 -0 -0 -0 -0 -0 -0 -0 -0 -0 -0 -0 -0 -0 0 0 0 0 0 0 0 0 0 0 0 0
0 0 0 0 0 0 0 0 0 0 0 0 0 0 0 -0 0 0 0 0 0 0 0 0 -0 -0 -0 -0 -0 -0 -0 -0 -0 0 0 0 0 0 0 0 0 0 0 0 0 0 0 0 0
0 -0 0 0 0 0 0 0 0 0 0 0 0 0 0 0 0 -0 0 0 0 0 0 0 0 -0 -0 -0 -0 -0 -0 -0 0 0 0 0 0 -0 0 0 0 0 0 0 0 0 0 0 0
-0 0 0 0 0 0 0 0 0 0 0 0 0 0 -0 -0 -0 -0 -0 -0 -0 -0 -0 -0 0 0 -0 -0 -0 -0 0 0 0 0 -0 -0 -0 -0 -0 0 -0 -0 -0 -0 -0 -0 0 0 0
0 0 0 0 0 0 0 0 0 0 0 0 0 0 -0 -0 -0 -0 -0 -0 0 -0 -0 -0 -0 0 -0 -0 0 0 0 0 -0 -0 -0 -0 -0 -0 -0 -0 -0 -0 -0 -0 -0 -0 -0 -0 -0
0 0 0 0 0 0 -0 0 0 0 0 0 0 0 -0 -0 -0 -0 0 0 0 -0 -0 -0 -0 -0 -0 -0 -0 -0 -0 -0 -0 -0 -0 -0 -0 -0 -0 -0 -0 -0 -0 -0 -0 -0 -0 -0 -0
0 0 0 0 0 -0 0 0 0 0 0 0 0 0 -0 -0 -0 -0 -0 0 -0 -0 -0 -0 -0 -0 -0 -0 -0 -0 -0 -0 -0 -0 0 0 0 0 0 -0 -0 -0 -0 -0 -0 -0 -0 -0 0
0 0 0 0 0 0 0 0 0 0 0 -0 -0 -0 -0 -0 -0 -0 -0 -0 -0 0 -0 -0 -0 -0 -0 -0 -0 -0 -0 -0 -0 0 0 0 0 0 0 0 0 0 0 0 0 0 0 0 0
0 0 -0 0 0 -0 -0 0 0 0 0 0 -0 -0 -0 -0 -0 -0 -0 -0 0 -0 0 -0 -0 -0 -0 -0 -0 -0 0 0 0 0 0 0 0 0 0 0 0 0 0 0 0 0 0 0 0
-0 0 0 0 0 0 0 0 -0 -0 -0 -0 -0 -0 -0 -0 -0 -0 -0 -0 -0 -0 0 -0 0 0 -0 -0 0 0 0 0 0 0 0 0 0 0 0 0 0 0 0 0 0 0 0 0 0
0 0 0 0 0 0 0 0 0 0 0 -0 -0 -0 -0 -0 -0 -0 -0 -0 -0 -0 0 0 0 0 0 0 0 0 0 0 0 0 0 0 0 0 0 0 0 0 0 0 0 0 0 0 0
0 0 0 0 0 0 0 0 0 0 -0 -0 -0 -0 -0 -0 -0 0 0 0 0 0 0 0 0 0 0 0 0 0 0 0 0 0 0 0 0 0 0 0 0 0 0 0 0 0 0 0 0
0 0 -0 -0 0 0 0 0 0 -0 -0 -0 -0 0 0 -0 0 0 -0 0 0 0 0 0 0 0 0 0 0 0 0 0 0 0 0 0 0 0 0 0 0 0 0 0 0 0 0 0 0
0 0 0 -0 -0 0 0 0 0 -0 -0 0 0 0 0 0 0 0 0 0 0 0 0 0 0 0 0 0 0 0 0 0 0 0 0 0 0 0 0 0 0 0 0 0 0 0 0 0 0
0 0 0 -0 -0 0 0 0 -0 -0 -0 0 0 0 0 0 0 0 0 0 0 0 0 0 0 0 0 0 0 0 0 0 0 0 0 0 0 0 0 0 0 0 0 0 0 0 0 0 0
0 0 0 0 0 -0 0 -0 -0 -0 -0 -0 -0 0 0 0 0 0 0 0 0 0 0 0 0 0 0 0 0 0 0 0 0 0 0 0 0 0 0 0 0 0 0 0 0 0 0 0 0
0 0 0 0 -0 -0 0 -0 0 0 0 0 0 0 0 0 0 0 0 0 0 0 0 0 0 0 0 0 0 0 0 0 0 0 0 0 0 0 0 0 0 0 0 0 0 0 0 0 0
0 0 0 0 0 0 0 0 0 0 0 0 0 0 0 0 0 0 0 0 0 0 0 0 0 0 0 0 0 0 0 0 0 0 0 0 0 0 0 0 0 0 0 0 0 0 0 0 0
0 0 0 0 0 0 0 0 0 0 0 0 0 0 0 0 0 0 -0 0 0 0 0 0 -0 0 0 0 0 0 0 0 0 0 0 0 0 0 0 0 0 0 0 0 0 0 0 0 0
0 0 0 0 0 0 0 0 0 0 0 0 0 0 0 0 -0 -0 -0 -0 -0 0 0 -0 0 0 -0 0 0 0 0 0 0 0 0 0 0 0 0 0 0 0 0 0 0 0 0 0 0
0 0 0 0 0 0 0 0 0 0 0 0 0 0 0 -0 0 -0 0 0 -0 0 0 0 0 0 0 0 0 0 0 0 0 0 0 0 0 0 0 0 0 0 0 0 0 0 0 0 0
0 0 0 0 0 0 0 0 0 0 0 0 0 0 0 0 -0 -0 -0 -0 0 0 0 0 0 0 0 0 0 0 0 0 0 0 0 0 0 0 0 0 0 0 0 0 0 0 0 0 0
0 0 0 0 0 0 0 0 0 0 0 0 0 0 0 0 0 0 0 0 0 0 0 0 0 0 0 0 0 0 0 0 0 0 0 0 0 0 0 0 0 0 0 0 0 0 0 0 0
0 0 -0 -0 0 0 0 0 0 0 0 0 0 0 0 0 0 0 0 0 0 0 0 0 0 0 0 0 0 0 0 0 0 0 0 0 0 0 0 0 0 0 0 0 0 0 0 0 0
0 -0 -0 -0 0 0 0 0 0 0 0 0 0 0 0 0 0 0 0 0 0 0 0 0 0 0 0 0 0 0 0 0 0 0 0 0 0 0 0 0 0 0 0 0 0 0 0 0 0
0 -0 -0 -0 0 0 0 0 0 0 0 0 0 0 0 0 0 0 0 0 0 0 0 0 0 0 0 0 0 0 0 0 0 0 0 0 0 0 0 0 0 0 0 0 0 0 0 0 0
0 0 0 0 0 0 0 0 0 0 0 0 0 0 0 0 0 0 0 0 0 0 0 0 0 0 0 0 0 0 0 0 0 0 0 0 0 0 0 0 0 0 0 0 0 0 0 0 0
Wind_Speed_500mb
4 5 4 5 7 9 7 10 3 6 8 6 15 14 12 17 2 7 55 36 55 48 44 35 28 25 21 19 17 17 16 16 15 15 14 14 14 13 12 10 10 10 13 13 13 13 13 12 10
7 16 6 6 7 3 8 8 12 10 31 50 36 22 23 9 15 40 49 54 51 47 42 34 28 25 23 21 19 18 16 15 14 15 15 14 12 10 10 10 11 13 15 17 17 18 18 19 17
15 14 7 7 4 5 6 1 20 35 37 11 17 20 11 8 36 48 48 52 49 45 38 34 29 26 24 20 17 16 16 16 16 16 14 12 13 12 12 13 15 16 17 15 17 19 20 21 22
11 8 10 6 12 12 5 4 37 28 30 25 27 20 15 14 31 38 49 46 47 43 38 32 29 26 22 18 16 15 16 16 15 15 14 13 12 12 14 16 17 16 16 13 16 16 16 16 16
9 8 7 2 9 8 10 13 31 11 14 47 12 13 7 25 35 44 45 46 45 45 40 35 27 21 18 15 15 17 17 17 16 16 13 12 12 14 15 15 15 13 13 12 13 13 13 14 15
3 5 7 2 10 13 13 29 16 11 24 41 31 19 6 42 44 43 40 46 45 45 40 32 25 19 17 17 18 19 19 18 16 16 14 14 16 17 17 17 17 16 15 16 17 19 20 18 16
6 8 6 8 5 12 11 17 13 27 21 11 40 10 29 49 37 38 46 46 43 38 33 28 22 20 19 18 18 18 19 18 18 18 18 18 19 18 19 19 19 20 20 20 21 24 25 25 22
2 3 4 1 12 3 13 6 12 21 7 44 34 16 23 56 48 49 46 42 39 34 27 22 22 21 21 21 21 20 22 20 19 19 20 18 19 16 18 17 19 19 20 21 21 25 29 30 31
0 7 6 9 17 11 31 14 19 13 38 6 3 39 64 64 57 55 49 46 38 32 26 23 23 27 26 26 25 22 21 17 17 17 15 15 13 13 13 13 14 15 18 18 19 22 26 31 33
8 8 16 19 17 33 23 41 30 13 10 11 40 48 69 65 60 55 53 46 39 32 28 23 22 23 26 24 25 20 17 17 12 12 8 8 6 8 8 9 10 11 11 11 14 18 21 25 33
12 9 10 20 41 42 31 29 14 40 5 43 61 73 72 67 56 45 46 39 32 30 34 28 26 24 22 17 16 14 10 11 6 3 6 2 5 5 7 6 6 8 9 12 16 17 20 25 33
4 7 9 14 37 33 23 27 25 15 26 47 62 73 75 68 55 47 44 42 44 40 33 32 30 26 24 15 10 5 5 3 3 7 10 11 13 11 9 8 8 11 14 17 19 22 26 31 36
9 9 15 20 21 23 25 16 17 17 44 55 67 74 69 66 56 48 40 43 44 44 37 34 34 30 18 14 11 8 8 8 10 11 13 18 18 18 17 16 17 20 24 27 28 32 36 39 44
11 12 16 15 18 15 13 7 4 13 56 67 73 73 71 64 57 54 57 54 53 50 44 40 39 29 18 11 13 8 9 14 17 15 19 19 22 23 23 24 24 26 29 32 35 38 40 44 48
23 11 9 5 4 5 22 8 8 43 62 75 73 67 68 68 61 62 61 61 53 54 48 45 37 33 16 18 17 13 10 9 12 16 18 23 25 25 24 26 26 28 33 37 37 41 48 55 59
9 10 7 6 8 2 7 12 5 48 66 66 64 43 41 38 41 58 58 60 62 61 57 54 49 38 28 12 22 16 13 18 15 19 25 29 30 27 26 29 30 34 38 41 47 54 60 61 61
13 6 4 7 8 4 6 8 2 52 61 29 28 21 26 24 25 32 35 38 58 66 64 67 53 37 17 16 22 18 14 16 17 20 28 34 31 30 30 32 34 37 43 51 56 61 62 65 69
5 4 5 11 6 7 4 5 12 27 30 31 28 29 30 26 21 20 25 22 42 60 68 51 36 26 22 19 21 15 13 14 14 16 18 19 24 27 31 35 41 48 54 57 58 61 63 66 69
6 2 6 1 7 10 9 13 17 21 47 46 47 56 57 55 53 48 43 38 41 44 44 35 18 1 6 12 13 12 12 6 8 11 15 18 24 30 37 45 51 55 55 57 61 65 67 71 75
13 12 5 2 10 13 12 21 18 24 19 35 51 54 64 61 50 45 44 38 30 19 18 18 16 12 8 5 8 8 9 14 20 25 30 37 45 49 54 56 60 61 64 70 68 65 61 55 48
10 8 5 6 9 15 12 12 13 13 32 38 49 52 49 48 47 38 28 22 24 24 21 21 19 14 10 8 9 12 17 29 38 40 40 40 41 45 49 51 51 57 64 54 44 41 39 41 42
5 2 6 6 7 7 7 4 1 3 12 15 32 39 44 46 39 31 32 34 30 27 21 21 19 16 19 22 22 28 31 34 35 36 36 36 40 44 49 50 56 52 44 44 41 41 38 39 41
6 4 4 5 6 8 5 10 6 10 6 9 19 37 42 41 33 37 34 28 23 17 14 10 5 3 10 19 25 27 29 32 29 26 30 34 46 57 60 60 53 55 54 52 45 36 34 34 36
2 8 12 9 5 4 6 9 8 14 13 11 24 39 38 34 32 32 29 24 22 17 9 2 6 13 19 21 25 32 35 30 26 28 36 45 52 56 54 54 57 61 59 54 44 40 36 36 40
12 10 4 5 6 8 9 5 7 11 18 15 25 41 39 34 31 25 20 16 13 11 8 9 11 15 18 24 30 31 32 30 29 34 43 53 53 54 51 58 55 53 48 43 38 31 32 37 40
5 8 9 9 6 6 10 6 8 2 37 42 46 40 32 25 19 15 8 11 6 9 7 8 15 24 27 28 33 31 29 31 39 50 54 58 59 58 57 52 52 44 40 39 36 34 34 36 39
2 6 6 12 6 6 4 4 11 7 15 31 38 36 23 15 20 16 15 16 12 8 11 16 21 25 30 30 32 34 40 45 49 53 58 56 61 59 57 57 55 48 43 40 37 35 33 30 28
9 9 6 7 4 2 6 7 8 17 18 17 23 22 18 23 32 29 23 15 8 10 14 19 25 27 27 26 30 38 46 52 51 51 55 55 58 65 64 59 48 40 35 35 39 37 31 31 29
7 5 11 9 7 7 2 10 9 22 19 16 18 19 33 35 29 22 15 9 4 11 17 23 20 18 24 33 38 46 44 40 44 51 54 59 63 66 46 36 38 31 39 44 43 40 38 37 40
3 5 8 9 4 2 6 10 8 8 23 32 30 39 38 33 27 19 8 5 13 18 18 12 16 23 27 29 37 38 34 39 45 47 49 64 71 55 50 61 53 16 33 39 40 40 39 37 40
Wind_Direction_500mb
2 122 106 80 54 64 258 257 124 321 58 19 103 99 90 38 357 151 144 164 166 154 149 154 155 153 153 156 147 138 138 131 121 117 96 79 70 61 57 50 41 29 22 19 20 15 12 5 355
157 133 140 104 89 55 266 228 129 135 124 89 68 65 39 63 89 140 150 154 161 153 152 152 155 158 159 153 145 141 135 129 114 97 90 87 83 73 58 48 42 37 32 25 23 17 19 19 23
153 144 139 98 93 200 234 100 121 136 135 45 96 50 33 57 119 139 151 153 154 151 153 155 158 153 146 136 128 131 129 121 114 110 98 84 66 55 50 49 45 43 43 37 42 38 34 32 35
179 114 58 73 263 248 228 197 145 141 99 109 137 76 109 205 139 150 148 148 152 153 154 150 147 141 132 130 134 132 131 120 115 104 95 84 75 60 55 53 53 49 51 45 41 35 28 28 32
155 110 89 111 253 263 118 141 138 118 107 117 98 120 127 159 144 136 140 149 155 149 144 141 136 131 127 131 137 131 119 117 115 104 97 89 72 64 62 56 53 45 37 26 28 18 11 8 7
77 89 75 190 347 352 72 127 120 85 111 108 102 108 79 137 141 140 142 149 149 142 137 131 128 124 130 135 120 118 119 117 117 109 98 85 81 73 62 53 47 37 29 23 21 15 7 4 356
111 89 200 156 5 5 42 131 155 129 125 113 137 100 143 151 143 139 142 143 139 133 130 127 128 132 125 120 121 128 122 124 117 110 97 91 80 77 74 66 55 48 43 46 35 38 35 31 28
62 119 84 171 133 101 322 136 171 130 121 136 128 154 175 159 145 141 143 142 138 133 130 125 126 122 120 121 126 124 121 122 112 107 99 97 85 80 68 62 51 53 49 47 50 38 36 34 27
199 59 198 150 166 128 202 184 176 150 140 149 192 158 160 152 149 149 150 149 148 144 141 127 126 115 122 126 125 124 119 116 110 105 96 90 80 66 53 55 49 40 43 43 36 30 27 22 15
152 177 216 183 187 173 167 145 136 127 150 78 125 142 153 154 157 159 160 161 163 163 157 145 146 134 134 125 117 116 105 111 115 90 88 86 63 61 55 49 32 25 32 26 13 5 1 0 357
206 220 181 175 176 162 152 146 126 132 343 154 147 154 160 161 163 169 170 178 177 170 167 157 155 146 147 134 137 137 133 115 113 48 9 315 336 2 10 16 7 338 340 343 340 342 340 337 338
188 291 230 136 149 147 163 146 141 143 177 161 163 163 167 170 175 183 186 188 186 185 179 166 162 161 151 146 156 159 190 196 233 292 318 320 304 311 314 299 301 299 309 314 321 323 323 321 319
157 195 82 127 124 128 141 147 166 182 166 162 164 170 175 180 186 194 196 196 193 193 186 181 176 174 167 168 196 216 230 262 279 284 303 311 301 290 299 294 294 301 307 309 308 308 308 310 313
158 116 115 110 120 135 120 123 99 167 162 164 171 179 184 189 196 199 202 204 202 199 196 189 188 179 186 189 219 231 254 270 274 288 305 307 304 294 303 300 298 296 296 300 302 302 307 309 310
126 77 31 31 113 115 111 28 178 169 168 170 182 188 191 197 201 208 210 211 211 211 203 197 196 183 201 205 227 236 246 248 271 296 284 280 275 283 288 287 287 286 291 295 294 296 304 307 308
81 56 104 264 156 2 112 244 209 172 170 181 189 193 196 201 216 219 222 219 217 218 209 199 192 200 179 226 215 216 213 231 236 245 247 252 255 262 266 273 276 278 282 289 297 304 307 311 312
14 167 180 335 202 76 94 257 241 183 183 162 181 183 190 199 217 233 238 229 220 221 212 198 191 194 221 234 213 229 221 213 233 240 238 247 253 258 263 274 285 295 303 305 307 307 311 311 309
215 216 212 211 211 65 244 338 19 164 160 132 139 145 153 153 151 172 198 194 208 214 209 210 227 246 216 209 209 211 226 252 262 240 241 249 257 266 279 291 303 305 306 308 308 310 311 311 313
196 153 151 45 18 86 31 27 4 70 127 120 121 122 120 114 109 115 126 146 166 179 203 224 265 119 155 189 193 224 258 273 283 289 287 289 300 306 307 307 309 312 313 315 314 310 310 309 309
62 116 85 104 32 97 84 46 36 40 92 124 122 120 119 117 115 113 109 109 118 103 104 99 104 99 103 107 105 71 20 343 330 323 319 318 316 315 319 320 319 315 314 312 307 306 308 311 318
32 85 29 111 43 39 94 38 20 41 97 113 123 124 124 124 121 117 113 112 111 109 107 107 100 93 76 40 12 348 334 329 330 324 311 310 314 312 309 308 311 312 314 313 315 317 319 318 318
70 315 51 49 85 178 79 194 290 54 66 95 134 134 131 130 129 125 126 119 115 102 77 57 51 42 20 8 351 337 324 322 315 307 306 307 308 307 309 315 321 322 321 322 322 320 314 311 312
182 151 163 135 97 84 354 95 253 117 136 173 154 146 142 140 137 135 130 121 111 91 85 73 63 352 329 328 329 323 319 316 307 297 297 297 308 315 318 321 324 326 327 329 327 327 326 322 319
141 90 45 47 84 56 280 130 225 191 183 174 176 164 154 152 152 149 135 137 130 115 103 17 304 316 318 314 317 321 317 311 302 300 308 319 318 317 320 323 323 326 325 322 321 318 316 311 317
67 71 8 16 13 212 328 68 226 230 162 174 169 176 173 166 167 162 130 146 133 137 176 225 280 299 310 316 318 315 309 304 308 322 326 331 330 328 328 329 327 320 318 318 319 314 310 312 312
30 131 147 189 190 249 1 344 284 175 144 166 175 174 174 173 180 171 160 193 202 156 203 261 300 318 321 320 317 310 315 325 328 332 330 330 332 326 322 319 318 317 313 316 314 312 313 314 314
198 52 157 106 15 66 260 345 18 35 129 153 158 156 159 222 213 187 188 171 172 215 268 298 314 322 326 322 324 329 328 323 324 328 334 327 328 323 311 312 312 315 311 312 312 314 314 310 308
119 145 58 11 112 208 276 223 217 207 198 192 191 214 162 159 148 143 152 169 208 263 294 311 321 329 330 324 321 323 327 327 326 329 329 327 326 320 311 309 306 309 303 305 307 311 309 299 298
2 36 54 105 111 155 224 262 215 199 193 194 192 171 153 146 147 151 155 167 250 295 312 323 335 332 330 333 329 326 328 329 330 327 329 327 322 314 300 296 292 300 305 309 306 311 315 311 312
184 123 114 108 214 73 144 275 336 172 176 169 146 148 154 157 149 146 162 292 315 317 322 349 336 327 329 329 323 323 325 329 330 327 325 320 317 301 285 286 291 299 286 297 306 315 319 320 316
Wind_Speed_850mb
4 5 4 5 7 9 7 10 3 6 8 6 15 14 12 17 2 7 55 36 55 48 44 35 28 25 21 19 17 17 16 16 15 15 14 14 14 13 12 10 10 10 13 13 13 13 13 12 10
7 16 6 6 7 3 8 8 12 10 31 50 36 22 23 9 15 40 49 54 51 47 42 34 28 25 23 21 19 18 16 15 14 15 15 14 12 10 10 10 11 13 15 17 17 18 18 19 17
15 14 7 7 4 5 6 1 20 35 37 11 17 20 11 8 36 48 48 52 49 45 38 34 29 26 24 20 17 16 16 16 16 16 14 12 13 12 12 13 15 16 17 15 17 19 20 21 22
11 8 10 6 12 12 5 4 37 28 30 25 27 20 15 14 31 38 49 46 47 43 38 32 29 26 22 18 16 15 16 16 15 15 14 13 12 12 14 16 17 16 16 13 16 16 16 16 16
9 8 7 2 9 8 10 13 31 11 14 47 12 13 7 25 35 44 45 46 45 45 40 35 27 21 18 15 15 17 17 17 16 16 13 12 12 14 15 15 15 13 13 12 13 13 13 14 15
3 5 7 2 10 13 13 29 16 11 24 41 31 19 6 42 44 43 40 46 45 45 40 32 25 19 17 17 18 19 19 18 16 16 14 14 16 17 17 17 17 16 15 16 17 19 20 18 16
6 8 6 8 5 12 11 17 13 27 21 11 40 10 29 49 37 38 46 46 43 38 33 28 22 20 19 18 18 18 19 18 18 18 18 18 19 18 19 19 19 20 20 20 21 24 25 25 22
2 3 4 1 12 3 13 6 12 21 7 44 34 16 23 56 48 49 46 42 39 34 27 22 22 21 21 21 21 20 22 20 19 19 20 18 19 16 18 17 19 19 20 21 21 25 29 30 31
0 7 6 9 17 11 31 14 19 13 38 6 3 39 64 64 57 55 49 46 38 32 26 23 23 27 26 26 25 22 21 17 17 17 15 15 13 13 13 13 14 15 18 18 19 22 26 31 33
8 8 16 19 17 33 23 41 30 13 10 11 40 48 69 65 60 55 53 46 39 32 28 23 22 23 26 24 25 20 17 17 12 12 8 8 6 8 8 9 10 11 11 11 14 18 21 25 33
12 9 10 20 41 42 31 29 14 40 5 43 61 73 72 67 56 45 46 39 32 30 34 28 26 24 22 17 16 14 10 11 6 3 6 2 5 5 7 6 6 8 9 12 16 17 20 25 33
4 7 9 14 37 33 23 27 25 15 26 47 62 73 75 68 55 47 44 42 44 40 33 32 30 26 24 15 10 5 5 3 3 7 10 11 13 11 9 8 8 11 14 17 19 22 26 31 36
9 9 15 20 21 23 25 16 17 17 44 55 67 74 69 66 56 48 40 43 44 44 37 34 34 30 18 14 11 8 8 8 10 11 13 18 18 18 17 16 17 20 24 27 28 32 36 39 44
11 12 16 15 18 15 13 7 4 13 56 67 73 73 71 64 57 54 57 54 53 50 44 40 39 29 18 11 13 8 9 14 17 15 19 19 22 23 23 24 24 26 29 32 35 38 40 44 48
23 11 9 5 4 5 22 8 8 43 62 75 73 67 68 68 61 62 61 61 53 54 48 45 37 33 16 18 17 13 10 9 12 16 18 23 25 25 24 26 26 28 33 37 37 41 48 55 59
9 10 7 6 8 2 7 12 5 48 66 66 64 43 41 38 41 58 58 60 62 61 57 54 49 38 28 12 22 16 13 18 15 19 25 29 30 27 26 29 30 34 38 41 47 54 60 61 61
13 6 4 7 8 4 6 8 2 52 61 29 28 21 26 24 25 32 35 38 58 66 64 67 53 37 17 16 22 18 14 16 17 20 28 34 31 30 30 32 34 37 43 51 56 61 62 65 69
5 4 5 11 6 7 4 5 12 27 30 31 28 29 30 26 21 20 25 22 42 60 68 51 36 26 22 19 21 15 13 14 14 16 18 19 24 27 31 35 41 48 54 57 58 61 63 66 69
6 2 6 1 7 10 9 13 17 21 47 46 47 56 57 55 53 48 43 38 41 44 44 35 18 1 6 12 13 12 12 6 8 11 15 18 24 30 37 45 51 55 55 57 61 65 67 71 75
13 12 5 2 10 13 12 21 18 24 19 35 51 54 64 61 50 45 44 38 30 19 18 18 16 12 8 5 8 8 9 14 20 25 30 37 45 49 54 56 60 61 64 70 68 65 61 55 48
10 8 5 6 9 15 12 12 13 13 32 38 49 52 49 48 47 38 28 22 24 24 21 21 19 14 10 8 9 12 17 29 38 40 40 40 41 45 49 51 51 57 64 54 44 41 39 41 42
5 2 6 6 7 7 7 4 1 3 12 15 32 39 44 46 39 31 32 34 30 27 21 21 19 16 19 22 22 28 31 34 35 36 36 36 40 44 49 50 56 52 44 44 41 41 38 39 41
6 4 4 5 6 8 5 10 6 10 6 9 19 37 42 41 33 37 34 28 23 17 14 10 5 3 10 19 25 27 29 32 29 26 30 34 46 57 60 60 53 55 54 52 45 36 34 34 36
2 8 12 9 5 4 6 9 8 14 13 11 24 39 38 34 32 32 29 24 22 17 9 2 6 13 19 21 25 32 35 30 26 28 36 45 52 56 54 54 57 61 59 54 44 40 36 36 40
12 10 4 5 6 8 9 5 7 11 18 15 25 41 39 34 31 25 20 16 13 11 8 9 11 15 18 24 30 31 32 30 29 34 43 53 53 54 51 58 55 53 48 43 38 31 32 37 40
5 8 9 9 6 6 10 6 8 2 37 42 46 40 32 25 19 15 8 11 6 9 7 8 15 24 27 28 33 31 29 31 39 50 54 58 59 58 57 52 52 44 40 39 36 34 34 36 39
2 6 6 12 6 6 4 4 11 7 15 31 38 36 23 15 20 16 15 16 12 8 11 16 21 25 30 30 32 34 40 45 49 53 58 56 61 59 57 57 55 48 43 40 37 35 33 30 28
9 9 6 7 4 2 6 7 8 17 18 17 23 22 18 23 32 29 23 15 8 10 14 19 25 27 27 26 30 38 46 52 51 51 55 55 58 65 64 59 48 40 35 35 39 37 31 31 29
7 5 11 9 7 7 2 10 9 22 19 16 18 19 33 35 29 22 15 9 4 11 17 23 20 18 24 33 38 46 44 40 44 51 54 59 63 66 46 36 38 31 39 44 43 40 38 37 40
3 5 8 9 4 2 6 10 8 8 23 32 30 39 38 33 27 19 8 5 13 18 18 12 16 23 27 29 37 38 34 39 45 47 49 64 71 55 50 61 53 16 33 39 40 40 39 37 40
Wind_Direction_850mb
2 122 106 80 54 64 258 257 124 321 58 19 103 99 90 38 357 151 144 164 166 154 149 154 155 153 153 156 147 138 138 131 121 117 96 79 70 61 57 50 41 29 22 19 20 15 12 5 355
157 133 140 104 89 55 266 228 129 135 124 89 68 65 39 63 89 140 150 154 161 153 152 152 155 158 159 153 145 141 135 129 114 97 90 87 83 73 58 48 42 37 32 25 23 17 19 19 23
153 144 139 98 93 200 234 100 121 136 135 45 96 50 33 57 119 139 151 153 154 151 153 155 158 153 146 136 128 131 129 121 114 110 98 84 66 55 50 49 45 43 43 37 42 38 34 32 35
179 114 58 73 263 248 228 197 145 141 99 109 137 76 109 205 139 150 148 148 152 153 154 150 147 141 132 130 134 132 131 120 115 104 95 84 75 60 55 53 53 49 51 45 41 35 28 28 32
155 110 89 111 253 263 118 141 138 118 107 117 98 120 127 159 144 136 140 149 155 149 144 141 136 131 127 131 137 131 119 117 115 104 97 89 72 64 62 56 53 45 37 26 28 18 11 8 7
77 89 75 190 347 352 72 127 120 85 111 108 102 108 79 137 141 140 142 149 149 142 137 131 128 124 130 135 120 118 119 117 117 109 98 85 81 73 62 53 47 37 29 23 21 15 7 4 356
111 89 200 156 5 5 42 131 155 129 125 113 137 100 143 151 143 139 142 143 139 133 130 127 128 132 125 120 121 128 122 124 117 110 97 91 80 77 74 66 55 48 43 46 35 38 35 31 28
62 119 84 171 133 101 322 136 171 130 121 136 128 154 175 159 145 141 143 142 138 133 130 125 126 122 120 121 126 124 121 122 112 107 99 97 85 80 68 62 51 53 49 47 50 38 36 34 27
199 59 198 150 166 128 202 184 176 150 140 149 192 158 160 152 149 149 150 149 148 144 141 127 126 115 122 126 125 124 119 116 110 105 96 90 80 66 53 55 49 40 43 43 36 30 27 22 15
152 177 216 183 187 173 167 145 136 127 150 78 125 142 153 154 157 159 160 161 163 163 157 145 146 134 134 125 117 116 105 111 115 90 88 86 63 61 55 49 32 25 32 26 13 5 1 0 357
206 220 181 175 176 162 152 146 126 132 343 154 147 154 160 161 163 169 170 178 177 170 167 157 155 146 147 134 137 137 133 115 113 48 9 315 336 2 10 16 7 338 340 343 340 342 340 337 338
188 291 230 136 149 147 163 146 141 143 177 161 163 163 167 170 175 183 186 188 186 185 179 166 162 161 151 146 156 159 190 196 233 292 318 320 304 311 314 299 301 299 309 314 321 323 323 321 319
157 195 82 127 124 128 141 147 166 182 166 162 164 170 175 180 186 194 196 196 193 193 186 181 176 174 167 168 196 216 230 262 279 284 303 311 301 290 299 294 294 301 307 309 308 308 308 310 313
158 116 115 110 120 135 120 123 99 167 162 164 171 179 184 189 196 199 202 204 202 199 196 189 188 179 186 189 219 231 254 270 274 288 305 307 304 294 303 300 298 296 296 300 302 302 307 309 310
126 77 31 31 113 115 111 28 178 169 168 170 182 188 191 197 201 208 210 211 211 211 203 197 196 183 201 205 227 236 246 248 271 296 284 280 275 283 288 287 287 286 291 295 294 296 304 307 308
81 56 104 264 156 2 112 244 209 172 170 181 189 193 196 201 216 219 222 219 217 218 209 199 192 200 179 226 215 216 213 231 236 245 247 252 255 262 266 273 276 278 282 289 297 304 307 311 312
14 167 180 335 202 76 94 257 241 183 183 162 181 183 190 199 217 233 238 229 220 221 212 198 191 194 221 234 213 229 221 213 233 240 238 247 253 258 263 274 285 295 303 305 307 307 311 311 309
215 216 212 211 211 65 244 338 19 164 160 132 139 145 153 153 151 172 198 194 208 214 209 210 227 246 216 209 209 211 226 252 262 240 241 249 257 266 279 291 303 305 306 308 308 310 311 311 313
196 153 151 45 18 86 31 27 4 70 127 120 121 122 120 114 109 115 126 146 166 179 203 224 265 119 155 189 193 224 258 273 283 289 287 289 300 306 307 307 309 312 313 315 314 310 310 309 309
62 116 85 104 32 97 84 46 36 40 92 124 122 120 119 117 115 113 109 109 118 103 104 99 104 99 103 107 105 71 20 343 330 323 319 318 316 315 319 320 319 315 314 312 307 306 308 311 318
32 85 29 111 43 39 94 38 20 41 97 113 123 124 124 124 121 117 113 112 111 109 107 107 100 93 76 40 12 348 334 329 330 324 311 310 314 312 309 308 311 312 314 313 315 317 319 318 318
70 315 51 49 85 178 79 194 290 54 66 95 134 134 131 130 129 125 126 119 115 102 77 57 51 42 20 8 351 337 324 322 315 307 306 307 308 307 309 315 321 322 321 322 322 320 314 311 312
182 151 163 135 97 84 354 95 253 117 136 173 154 146 142 140 137 135 130 121 111 91 85 73 63 352 329 328 329 323 319 316 307 297 297 297 308 315 318 321 324 326 327 329 327 327 326 322 319
141 90 45 47 84 56 280 130 225 191 183 174 176 164 154 152 152 149 135 137 130 115 103 17 304 316 318 314 317 321 317 311 302 300 308 319 318 317 320 323 323 326 325 322 321 318 316 311 317
67 71 8 16 13 212 328 68 226 230 162 174 169 176 173 166 167 162 130 146 133 137 176 225 280 299 310 316 318 315 309 304 308 322 326 331 330 328 328 329 327 320 318 318 319 314 310 312 312
30 131 147 189 190 249 1 344 284 175 144 166 175 174 174 173 180 171 160 193 202 156 203 261 300 318 321 320 317 310 315 325 328 332 330 330 332 326 322 319 318 317 313 316 314 312 313 314 314
198 52 157 106 15 66 260 345 18 35 129 153 158 156 159 222 213 187 188 171 172 215 268 298 314 322 326 322 324 329 328 323 324 328 334 327 328 323 311 312 312 315 311 312 312 314 314 310 308
119 145 58 11 112 208 276 223 217 207 198 192 191 214 162 159 148 143 152 169 208 263 294 311 321 329 330 324 321 323 327 327 326 329 329 327 326 320 311 309 306 309 303 305 307 311 309 299 298
2 36 54 105 111 155 224 262 215 199 193 194 192 171 153 146 147 151 155 167 250 295 312 323 335 332 330 333 329 326 328 329 330 327 329 327 322 314 300 296 292 300 305 309 306 311 315 311 312
184 123 114 108 214 73 144 275 336 172 176 169 146 148 154 157 149 146 162 292 315 317 322 349 336 327 329 329 323 323 325 329 330 327 325 320 317 301 285 286 291 299 286 297 306 315 319 320 316